Flag Weather past 2 weeks in Olympia, Washington, U.S.A.

Now
56 °F

Mostly cloudy.


Feels Like: 52 °F
Forecast: 53 / 57 °F
Wind: 14 mph from Southwest

Location: Olympia Airport

Current Time: Nov 25, 2014 at 8:37:15 PM

Latest Report: Nov 25, 2014 at 7:54 PM


Visibility: 10 mi

Pressure: 30.20 "Hg

Humidity: 90%

Dew point: 53 °F

Location of OlympiaLocation

Historic Weather in Olympia — Graph

°F

Olympia temperature yesterday

Maximum temperature yesterday: 51 °F (at 11:54 PM)
Minimum temperature yesterday: 36 °F (at 1:58 AM)
Average temperature yesterday: 45 °F

Past Weeks' High & Low Weather Summary

 TemperatureHumidityPressure
High58 °F (Nov 25, 10:54 AM)100% (Nov 18, 2:54 AM)30.53 "Hg (Nov 18, 2:54 AM)
Low16 °F (Nov 16, 6:54 AM)24% (Nov 12, 2:54 PM)29.32 "Hg (Nov 21, 4:54 PM)
Average39 °F75%30.13 "Hg
* Reported Nov 10 6:54 PM — Nov 25 6:54 PM, Olympia, Weather by CustomWeather, © 2014

Note: Actual official high and low records may vary slightly from our data, if they occured in-between our weather recording intervals... More about our weather records

Advertising

Olympia weather history for previous 24 hours

 ConditionsComfort  
Time TempWeatherWind HumidityBarometerVisibility
6:54 PM
Nov 25
56 °FMostly cloudy.9 mph90%30.21 "Hg10 mi
5:54 PM56 °FLight rain. Fog.13 mph93%30.22 "Hg5 mi
5:04 PM56 °FFog.14 mph93%30.21 "Hg3 mi
4:54 PM56 °FLight rain. Fog.12 mph93%30.21 "Hg5 mi
3:54 PM57 °FLight rain. Fog.12 mph93%30.22 "Hg3 mi
2:54 PM57 °FLight rain. Fog.13 mph93%30.22 "Hg4 mi
1:54 PM58 °FLight rain. Fog.10 mph90%30.21 "Hg2 mi
12:54 PM58 °FLight rain. Fog.12 mph90%30.21 "Hg2 mi
11:54 AM58 °FLight rain. Fog.15 mph93%30.21 "Hg2 mi
10:54 AM58 °FCloudy.13 mph93%30.22 "Hg10 mi
9:54 AM53 °FLight rain. Fog.3 mph96%30.22 "Hg3 mi
8:54 AM53 °FLight rain. Fog.8 mph96%30.20 "Hg3 mi
7:54 AM55 °FLight rain. Fog.9 mph96%30.18 "Hg3 mi
7:04 AM54 °FLight rain. Fog.8 mph97%30.16 "Hg3 mi
6:54 AM54 °FLight rain. Fog.10 mph97%30.16 "Hg2 mi
5:54 AM53 °FLight rain. Fog.10 mph96%30.15 "Hg3 mi
4:54 AM53 °FLight rain. Fog.10 mph96%30.16 "Hg3 mi
3:54 AM52 °FLight rain. Fog.9 mph97%30.17 "Hg5 mi
2:54 AM52 °FLight rain. Fog.10 mph97%30.17 "Hg5 mi
1:54 AM52 °FLight rain. Fog.12 mph93%30.16 "Hg6 mi
12:54 AM51 °FLight rain. Mostly cloudy.13 mph96%30.15 "Hg7 mi
12:03 AM51 °FLight rain. Fog.14 mph96%30.16 "Hg4 mi
11:54 PM
Nov 24
51 °FLight rain. Fog.14 mph96%30.16 "Hg4 mi
10:54 PM50 °FLight rain. Fog.13 mph96%30.16 "Hg2 mi
9:54 PM50 °FLight rain. Fog.13 mph93%30.14 "Hg2 mi
8:54 PM49 °FLight rain. Fog.12 mph93%30.14 "Hg2 mi
8:01 PM48 °FLight rain. Fog.15 mph93%30.13 "Hg3 mi
Weather by CustomWeather, © 2014

See weather overviewHow to use our weather pages